Weather Roundup
Issued by NWS

Home | Current Version | Previous Version | Text Only | Print | Product List | Glossary On
Versions: 1 2 3 4 5 6 7 8 9 10 11 12 13 14 15 16 17 18 19 20 21 22 23 24 25 26 27 28 29 30 31 32 33 34 35 36 37 38 39 40 41 42 43 44 45 46 47 48 49 50
000
NZUS93 KARX 071559
HRRWXR

CURRENT HOURLY OBSERVATIONS ACROSS
MUCH OF THE UPPER MISSISSIPPI VALLEY
NATIONAL WEATHER SERVICE LA CROSSE WI
1000 AM CST SUN FEB 07 2016


...SOUTHEAST MINNESOTA...


CITY           SKY/WX    TMP DP  RH WIND       PRES   REMARKS
ROCHESTER      SUNNY     34  25  69 W20       29.68S WCI  23
ROCHESTER/MAYO FAIR      37  27  67 W14G25    29.67S WCI  28
WINONA         MOSUNNY   41  28  60 W8G17     29.68S
AUSTIN         SUNNY     36  27  69 W17G25    29.72R WCI  25
ALBERT LEA     MOSUNNY   36  27  69 W13G20    29.73R WCI  27
DODGE CENTER   SUNNY     36  25  64 W17       29.68R WCI  25
PRESTON        SUNNY     33  25  71 W13G18    29.70S WCI  24
OWATONNA       SUNNY     36  25  64 W22G30    29.70R WCI  24
FARIBAULT      SUNNY     39  27  60 W17G25    29.68S WCI  30
$$

...ELSEWHERE IN MINNESOTA...


CITY           SKY/WX    TMP DP  RH WIND       PRES   REMARKS
MINNEAPOLIS    MOSUNNY   39  26  59 W20G28    29.62F WCI  29
INTNL FALLS    CLOUDY    33  30  88 W7        29.39R WCI  27
DULUTH         FLURRIES  34  31  88 W15       29.43S WCI  24
RED WING       SUNNY     39  27  60 W16G22    29.63S WCI  30
REDWOOD FALLS  SUNNY     38  27  64 W23G32    29.71S WCI  27
MANKATO        MOSUNNY   37  25  60 W18G26    29.71S WCI  27
WORTHINGTON    CLOUDY    36  25  64 W23       29.80S WCI  24
FAIRMONT       CLOUDY    37  25  60 W18       29.75S WCI  27
$$

...SOUTHWEST WISCONSIN...


CITY           SKY/WX    TMP DP  RH WIND       PRES   REMARKS
LA CROSSE      CLOUDY    38  27  64 W10       29.68F WCI  31
PRAIRIE DU CHI SUNNY     37  26  65 W8        29.74F WCI  31
BOSCOBEL       SUNNY     40  29  64 W9        29.72F WCI  34
LONE ROCK      SUNNY     38  29  70 W14       29.71F WCI  30
PLATTEVILLE    SUNNY     36  31  81 SW10      29.74S WCI  28
FORT MC COY    PTSUNNY   38  29  71 W10G18    29.67F WCI  31
VIROQUA        FAIR      37  28  71 W14       29.67F WCI  28
WIS DELLS      SUNNY     37  29  73 SW10      29.68S WCI  29
$$

...ELSEWHERE IN WISCONSIN...


CITY           SKY/WX    TMP DP  RH WIND       PRES   REMARKS
MILWAUKEE      CLOUDY    40  28  62 SW21G29   29.71F WCI  30
MADISON        MOSUNNY   38  29  70 SW10G21   29.70F WCI  31
GREEN BAY      SUNNY     37  30  75 SW12      29.63F WCI  29
EAU CLAIRE     NOT AVBL
BLACK RVR FLS  PTSUNNY   38  27  66 W8        29.64F WCI  32
MEDFORD        CLOUDY    31  29  91 SW7       29.55F WCI  25
WAUSAU         CLOUDY    34  28  79 SW10      29.57F WCI  26
WIS RAPIDS     SUNNY     37  27  67 SW12      29.63F WCI  29
MARSHFIELD     CLOUDY    35  27  72 W14       29.58S WCI  26
RICE LAKE      CLOUDY    36  30  79 SW12      29.56F WCI  28
$$

...NORTHEAST IOWA...


CITY           SKY/WX    TMP DP  RH WIND       PRES   REMARKS
WATERLOO       SUNNY     35  26  69 W15       29.80R WCI  25
DUBUQUE        SUNNY     36  29  75 W16       29.75F WCI  26
DECORAH        PTSUNNY   34  27  75 W9G16     29.72S WCI  26
MASON CITY     CLOUDY    34  26  72 W21       29.78R WCI  22
CHARLES CITY   SUNNY     34  28  80 W14       29.77R WCI  24
OELWEIN        MOSUNNY   34  28  80 W17       29.77S WCI  23
$$

...ELSEWHERE IN IOWA...


CITY           SKY/WX    TMP DP  RH WIND       PRES   REMARKS
DES MOINES     MOSUNNY   41  25  53 NW21G30   29.90R
IOWA CITY      SUNNY     39  30  70 W13       29.84F WCI  31
FORT DODGE     CLOUDY    36  27  69 W13       29.85S WCI  27
MARSHALLTOWN   SUNNY     37  26  64 W17       29.84R WCI  27
CEDAR RAPIDS   SUNNY     39  31  72 W16       29.80S WCI  30
$$

...NORTHERN ILLINOIS...


CITY           SKY/WX    TMP DP  RH WIND       PRES   REMARKS
CHICAGO-OHARE  CLOUDY    40  29  64 SW17G23   29.78F WCI  31
CHICAGO-MIDWAY CLOUDY    43  28  55 SW16G29   29.80F
MOLINE         CLOUDY    40  29  64 W15       29.81S WCI  32
ROCKFORD       CLOUDY    40  29  64 SW13G23   29.78F WCI  32
PEORIA         CLOUDY    44  29  55 SW13      29.86F
$$

NOTE: "FAIR" INDICATES FEW OR NO CLOUDS BELOW 12,000 FEET WITH NO
SIGNIFICANT WEATHER AND/OR OBSTRUCTIONS TO VISIBILITY. WIND
SPEEDS ARE IN MILES-PER-HOUR.




USA.gov is the U.S. government's official web portal to all federal, state and local government web resources and services.